This is the latest recevied weather packets stored in our database for station/object NE8U. If no packets are shown the sender has not sent any weather packets the latest 10 day(s).
| Time | Temp. | Humidity | Pressure | Rain* | Wind** | Luminosity | Snow |
|---|---|---|---|---|---|---|---|
| 1777770805 | 29.44° C | 20% | 1012.8 hPa | 0 mm | - | 51 W/m² | - |
| 1777770502 | 30° C | 20% | 1012.9 hPa | 0 mm | - | 61 W/m² | - |
| 1777770199 | 30° C | 20% | 1012.8 hPa | 0 mm | - | 70 W/m² | - |
| 1777769895 | 30° C | 20% | 1012.9 hPa | 0 mm | - | 83 W/m² | - |
| 1777769594 | 30° C | 20% | 1013 hPa | 0 mm | - | 90 W/m² | - |
| 1777769289 | 30° C | 20% | 1012.9 hPa | 0 mm | - | 85 W/m² | - |
| 1777768987 | 30° C | 20% | 1012.7 hPa | 0 mm | - | 81 W/m² | - |
| 1777768684 | 30° C | 20% | 1012.7 hPa | 0 mm | - | 77 W/m² | - |
| 1777768381 | 30° C | 19% | 1012.7 hPa | 0 mm | - | 88 W/m² | - |
| 1777768078 | 30.56° C | 19% | 1012.9 hPa | 0 mm | - | 143 W/m² | - |
| 1777767775 | 30.56° C | 19% | 1012.7 hPa | 0 mm | - | 179 W/m² | - |
| 1777767471 | 30.56° C | 19% | 1012.9 hPa | 0 mm | - | 159 W/m² | - |
| 1777767168 | 30.56° C | 19% | 1012.7 hPa | 0 mm | - | 108 W/m² | - |
| 1777766865 | 31.11° C | 17% | 1012.9 hPa | 0 mm | - | 238 W/m² | - |
| 1777766562 | 31.11° C | 17% | 1012.8 hPa | 0 mm | - | 249 W/m² | - |
| 1777766259 | 30.56° C | 18% | 1012.8 hPa | 0 mm | - | 188 W/m² | - |
| 1777765957 | 30.56° C | 18% | 1012.7 hPa | 0 mm | - | 177 W/m² | - |
| 1777765653 | 31.67° C | 18% | 1012.8 hPa | 0 mm | - | 225 W/m² | - |
| 1777765351 | 31.67° C | 17% | 1012.9 hPa | 0 mm | - | 373 W/m² | - |
| 1777765046 | 31.67° C | 16% | 1012.7 hPa | 0 mm | - | 307 W/m² | - |
| 1777764744 | 31.67° C | 16% | 1012.9 hPa | 0 mm | - | 343 W/m² | - |
| 1777764439 | 31.67° C | 16% | 1012.9 hPa | 0 mm | - | 383 W/m² | - |
| 1777764137 | 31.67° C | 16% | 1012.8 hPa | 0 mm | - | 437 W/m² | - |
| 1777763833 | 32.78° C | 15% | 1012.9 hPa | 0 mm | - | 468 W/m² | - |
| 1777763531 | 32.22° C | 15% | 1012.8 hPa | 0 mm | - | 471 W/m² | - |
* Rain latest hour (hover to see other rain measurements)
** Current wind speed in m/s (hover to see current wind gust speed)